AirNav   Pilot Hours Calculator
 
 565 users online  

K67 Oswego Municipal Airport
Oswego, Kansas, USA

GOING TO OSWEGO?


FAA INFORMATION EFFECTIVE 09 SEPTEMBER 2021

Location

FAA Identifier: K67
Lat/Long: 37-09-33.8000N 095-02-29.4000W
37-09.563333N 095-02.490000W
37.1593889,-95.0415000
(estimated)
Elevation: 832 ft. / 253.6 m (surveyed)
Variation: 05E (1985)
From city: 3 miles E of OSWEGO, KS
Time zone: UTC -5 (UTC -6 during Standard Time)
Zip code: 66725

Airport Operations

Airport use: Open to the public
Activation date: 08/1961
Control tower: no
ARTCC: KANSAS CITY CENTER
FSS: WICHITA FLIGHT SERVICE STATION
NOTAMs facility: ICT (NOTAM-D service available)
Attendance: UNATNDD
Wind indicator: yes
Segmented circle: no
Beacon: white-green (lighted land airport)
Operates sunset to sunrise.

Airport Communications

CTAF: 122.9
WX AWOS-3PT at MIO (17 nm SE): 119.675 (918-544-6164)

Nearby radio navigation aids

VOR radial/distance  VOR name  Freq  Var
OSWr081/7.8OSWEGO VOR/DME117.6008E
EOSr296/34.7NEOSHO VOR/DME117.3007E
CNUr132/38.4CHANUTE VOR/DME109.2005E

Airport Services

Fuel available: 100LL
100LL:SELF SVC FUEL AVBL 24HRS
Parking: tiedowns
Airframe service: NONE
Powerplant service: NONE
Bottled oxygen: NONE
Bulk oxygen: NONE

Runway Information

Runway 17/35

Dimensions: 2500 x 50 ft. / 762 x 15 m
Surface: asphalt, in good condition
Weight bearing capacity: 
PCN 4 /F/C/Y/U
Runway edge lights: low intensity
RUNWAY 17  RUNWAY 35
Latitude: 37-09.768857N37-09.356787N
Longitude: 095-02.490013W095-02.490013W
Elevation: 832.0 ft.826.0 ft.
Traffic pattern: leftleft
Runway heading: 175 magnetic, 180 true355 magnetic, 000 true
Markings: basic, in good conditionbasic, in good condition
Obstructions: 23 ft. rr, 660 ft. from runway, 20:1 slope to clearnone

Airport Ownership and Management from official FAA records

Ownership: Publicly-owned
Owner: CITY OF OSWEGO
703 5TH ST
OSWEGO, KS 67356
Phone 620-795-4433
Manager: CALVIN JURGENSEN
PO BOX 210
OSWEGO, KS 67356
Phone (620) 429-0297

Airport Operational Statistics

Aircraft based on the field: 4
Single engine airplanes: 4
    
Aircraft operations: avg 46/month *
73% local general aviation
27% transient general aviation
* for 12-month period ending 02 August 2018

Additional Remarks

PUBLIC PHONE.
WILDLIFE ON & INVOF ARPT.
FOR CD CTC KANSAS CITY ARTCC AT 913-254-8508.

Instrument Procedures

There are no published instrument procedures at K67.

Some nearby airports with instrument procedures:

KMIO - Miami Regional Airport (17 nm SE)
KPTS - Atkinson Municipal Airport (23 nm NE)
KPPF - Tri-City Airport (24 nm NW)
KCFV - Coffeyville Municipal Airport (26 nm W)
KJLN - Joplin Regional Airport (26 nm E)
 
Loc | Ops | Rwys | IFR | FBO | Links
Com | Nav | Svcs | Stats | Notes
Area around K67 (Oswego Municipal Airport)
 
Road maps at: MapQuest Bing Google
 
Aerial photo
No photo
 
Sectional chart

 
Airport distance calculator
Flying to Oswego Municipal Airport? Find the distance to fly.

From to K67

Sunrise and sunset
Times for 20-Sep-2021
 Local
(UTC-5)
 Zulu
(UTC)
Morning civil twilight06:4111:41
Sunrise07:0712:07
Sunset19:2000:20
Evening civil twilight19:4600:46

Current date and time
Zulu (UTC)  20-Sep-2021 11:04:41
Local (UTC-5)  20-Sep-2021 06:04:41
 
METAR
KMIO 
17nm SE 
201055Z AUTO 17008KT 10SM CLR 22/21 A2982 RMK AO2
KPTS 
23nm NE 
201055Z AUTO 17007KT 10SM CLR 22/20 A2981 RMK AO2 T02150203
KPPF 
24nm NW 
201052Z AUTO 17006KT 10SM BKN002 22/21 A2981 RMK AO2 SLP083 T02170206 $
KCFV 
26nm W 
201052Z AUTO 16007KT 10SM CLR 22/20 A2979 RMK AO2 SLP078 T02170200
KJLN 
26nm E 
201053Z 17009KT 10SM CLR 22/20 A2983 RMK AO2 SLP091 T02170200
TAF
KJLN 
26nm E 
200520Z 2006/2106 15009KT P6SM FEW250 FM201400 19016G27KT P6SM SCT150 FM210000 19015G22KT P6SM SCT050 PROB30 2100/2104 4SM -TSRA BR OVC050CB
NOTAMs
Click for the latest NOTAMs
NOTAMs are issued by the DoD/FAA and will open in a separate window not controlled by AirNav.

 

 
 

FBO, Fuel Providers, and Aircraft Ground Support

  
 Business Name 
 
 Contact 
 
 Services / Description 
 
Fuel Prices
 
Comments
  
Oswego Municipal Airport 620-795-4433
620-795-2565
[web site]
[email]
Aviation fuel, Aircraft parking (ramp or tiedown), Hangar leasing / sales

More info about Oswego Municipal Airport
independent
100LL
SS $4.16 
 Updated 17-Sep-2021
 
   write
SS=Self service
Update Fuel Prices
 

Would you like to see your business listed on this page?

 If your business provides an interesting product or service to pilots, flight crews, aircraft, or users of the Oswego Municipal Airport, you should consider listing it here.  To start the listing process, click on the button below
 
Add a business
 

Other Pages about Oswego Municipal Airport

Update a link
 
Copyright © AirNav, LLC. All rights reserved. Privacy Policy  Contact